OM2RC-6 Weather Reports


time (UTC)temp
F
wind
direction
speed
knots
gust
knots
rain 1hr
in
rain 24hr
in
rain mn
in
humidity
%
barometer
mb
20260507021508 57 189 3.5 6.1 0.00 0.00 0.00 100 1011.0
20260507021007 57 196 1.7 8.7 0.00 0.00 0.00 100 1010.9
20260507020506 57 188 4.3 8.7 0.00 0.00 0.00 100 1010.9
20260507020005 57 177 2.6 6.1 0.00 0.00 0.00 100 1010.9
20260507015504 57 181 2.6 5.2 0.00 0.00 0.00 100 1010.8
20260507015003 57 175 1.7 5.2 0.00 0.00 0.00 100 1010.8
20260507014501 57 166 1.7 6.1 0.00 0.00 0.00 100 1010.9
20260507013459 58 179 4.3 7.0 0.00 0.00 0.00 100 1010.9
20260507012956 58 192 3.5 7.0 0.00 0.00 0.00 100 1010.9
20260507012455 58 190 3.5 7.0 0.00 0.00 0.00 100 1011.0
20260507011953 58 202 3.5 8.7 0.00 0.00 0.00 100 1010.9
20260507011451 58 202 4.3 9.6 0.00 0.00 0.00 100 1010.9
20260507010449 59 208 4.3 10.4 0.00 0.00 0.00 100 1010.6
20260507005947 59 203 4.3 10.4 0.00 0.00 0.00 100 1010.5
20260507005443 59 204 5.2 11.3 0.00 0.00 0.00 100 1010.5
20260507004942 59 200 4.3 15.6 0.00 0.00 0.00 100 1010.3
20260507004441 59 200 6.1 15.6 0.00 0.00 0.00 100 1010.2
20260507003937 60 202 6.1 18.2 0.00 0.00 0.00 100 1010.1
20260507003432 60 212 7.8 18.2 0.00 0.00 0.00 100 1009.9
20260507002931 60 207 8.7 16.5 0.00 0.00 0.00 100 1009.8
20260507001427 61 202 9.6 19.1 0.00 0.00 0.00 100 1009.8
20260507000926 61 201 7.0 18.2 0.00 0.00 0.00 100 1009.7
20260506235924 61 202 10.4 20.0 0.00 0.00 0.00 100 1009.6
20260506235422 62 201 10.4 20.0 0.00 0.00 0.00 100 1009.5
20260506234916 62 198 9.6 20.0 0.00 0.00 0.00 100 1009.5
20260506234356 62 201 12.2 20.0 0.00 0.00 0.00 98 1009.3
20260506233844 62 198 10.4 25.2 0.00 0.00 0.00 96 1009.2
20260506233325 63 197 14.8 25.2 0.00 0.00 0.00 94 1009.2
20260506232824 63 201 7.0 15.6 0.00 0.00 0.00 94 1009.0
20260506231722 62 182 7.0 13.9 0.00 0.00 0.00 98 1008.9
20260506231213 61 182 6.1 17.4 0.00 0.00 0.00 100 1008.7
20260506230711 62 171 7.8 16.5 0.00 0.00 0.00 98 1008.5
20260506230210 62 177 10.4 18.2 0.00 0.00 0.00 98 1008.6
20260506225710 63 174 12.2 20.0 0.00 0.00 0.00 97 1008.4
20260506225208 62 155 8.7 23.5 0.00 0.00 0.00 99 1008.4
20260506224707 62 161 10.4 19.1 0.00 0.00 0.00 100 1008.3
20260506224206 62 160 12.2 19.1 0.00 0.00 0.00 98 1008.2
20260506223704 62 165 8.7 20.0 0.00 0.00 0.00 100 1008.3
20260506223203 62 157 9.6 20.0 0.00 0.00 0.00 100 1008.1
20260506222702 62 161 12.2 20.9 0.00 0.00 0.00 100 1008.2
20260506222157 62 168 11.3 20.0 0.00 0.00 0.00 100 1008.2
20260506221150 63 162 11.3 24.3 0.00 0.00 0.00 99 1008.2
20260506220649 63 151 11.3 24.3 0.00 0.00 0.00 99 1008.0
20260506220147 63 164 12.2 22.6 0.00 0.00 0.00 99 1008.1
20260506215646 62 156 11.3 20.9 0.00 0.00 0.00 100 1007.9
20260506215145 62 158 9.6 20.0 0.00 0.00 0.00 100 1008.0
20260506214644 62 153 11.3 20.0 0.00 0.00 0.00 100 1008.0
20260506214143 62 159 10.4 20.0 0.00 0.00 0.00 100 1008.0
20260506213640 62 158 8.7 20.0 0.00 0.00 0.00 100 1008.3
20260506213139 62 162 7.8 17.4 0.00 0.00 0.00 100 1008.4
20260506212638 62 155 9.6 20.0 0.00 0.00 0.00 100 1008.2
20260506212136 62 164 8.7 20.0 0.00 0.00 0.00 100 1008.3
20260506211133 62 151 7.8 18.2 0.00 0.00 0.00 100 1008.1
20260506210632 62 163 7.0 18.2 0.00 0.00 0.00 100 1008.1
20260506210129 63 154 8.7 18.2 0.00 0.00 0.00 100 1008.1
20260506205126 63 152 8.7 19.1 0.00 0.00 0.00 100 1008.0
20260506204625 63 153 9.6 19.1 0.00 0.00 0.00 100 1007.9
20260506204123 63 145 8.7 24.3 0.00 0.00 0.00 100 1007.9
20260506203622 63 155 10.4 24.3 0.00 0.00 0.00 99 1007.8
20260506203120 63 153 7.8 20.0 0.00 0.00 0.00 100 1007.6
20260506202618 63 168 8.7 21.7 0.00 0.00 0.00 99 1007.6
20260506202115 63 162 10.4 21.7 0.00 0.00 0.00 98 1007.7
20260506201614 63 149 8.7 18.2 0.00 0.00 0.00 98 1007.6
20260506201110 63 159 10.4 19.1 0.00 0.00 0.00 98 1007.6
20260506200609 64 157 10.4 20.9 0.00 0.00 0.00 97 1007.5
20260506200108 64 152 12.2 20.9 0.00 0.00 0.00 96 1007.6
20260506195606 64 148 9.6 19.1 0.00 0.00 0.00 95 1007.2
20260506195104 64 152 7.8 20.9 0.00 0.00 0.00 96 1007.6
20260506194602 64 153 10.4 20.9 0.00 0.00 0.00 94 1007.2
20260506194101 64 157 8.7 16.5 0.00 0.00 0.00 96 1007.3
20260506193600 64 145 8.7 19.1 0.00 0.00 0.00 95 1007.4
20260506193057 65 149 7.0 19.1 0.00 0.00 0.00 93 1007.5
20260506192554 65 149 8.7 19.1 0.00 0.00 0.00 92 1007.5
20260506192052 65 154 8.7 14.8 0.00 0.00 0.00 93 1007.5
20260506191551 65 160 8.7 19.1 0.00 0.00 0.00 94 1007.3
20260506191047 65 165 11.3 19.1 0.00 0.00 0.00 92 1007.4
20260506190545 65 164 7.0 16.5 0.00 0.00 0.00 93 1007.4
20260506190044 65 164 6.1 19.1 0.00 0.00 0.00 92 1007.5
20260506185543 65 153 9.6 19.1 0.00 0.00 0.00 90 1007.3
20260506185042 65 163 7.8 19.1 0.00 0.00 0.00 91 1007.3
20260506184540 66 165 9.6 19.1 0.00 0.00 0.00 89 1007.2
20260506184039 66 164 8.7 19.1 0.00 0.00 0.00 89 1007.0
20260506183532 66 154 8.7 19.1 0.00 0.00 0.00 88 1006.9
20260506183030 66 159 7.8 20.9 0.00 0.00 0.00 87 1006.8
20260506182028 66 167 8.7 15.6 0.00 0.00 0.00 85 1006.8
20260506181527 66 170 7.8 14.8 0.00 0.00 0.00 85 1006.9
20260506181025 66 168 7.0 12.2 0.00 0.00 0.00 84 1006.9
20260506180523 66 160 7.0 13.9 0.00 0.00 0.00 83 1006.9
20260506180021 67 164 8.7 15.6 0.00 0.00 0.00 82 1006.8
20260506175520 67 165 8.7 21.7 0.00 0.00 0.00 81 1006.8
20260506175018 67 157 8.7 21.7 0.00 0.00 0.00 81 1006.6
20260506174518 67 162 10.4 22.6 0.00 0.00 0.00 80 1006.5
20260506173515 68 160 7.8 20.9 0.00 0.00 0.00 79 1006.4
20260506173013 68 153 10.4 20.0 0.00 0.00 0.00 77 1006.3
20260506172512 68 151 9.6 23.5 0.00 0.00 0.00 76 1006.5
20260506172009 69 154 9.6 22.6 0.00 0.00 0.00 75 1006.4
20260506171508 69 155 13.0 22.6 0.00 0.00 0.00 74 1006.2
20260506170505 69 162 7.0 19.1 0.00 0.00 0.00 73 1006.7
20260506170003 70 162 8.7 18.2 0.00 0.00 0.00 72 1006.6
20260506165502 70 173 5.2 19.1 0.00 0.00 0.00 70 1006.7
20260506165001 70 166 10.4 18.2 0.00 0.00 0.00 71 1006.8
20260506164459 70 173 11.3 18.2 0.00 0.00 0.00 69 1006.7
20260506163958 70 157 7.0 19.1 0.00 0.00 0.00 69 1006.8
20260506163456 71 165 10.4 19.1 0.00 0.00 0.00 68 1006.9
20260506162955 71 157 9.6 18.2 0.00 0.00 0.00 67 1006.9
20260506162454 71 156 11.3 18.2 0.00 0.00 0.00 66 1006.7
20260506161953 71 167 7.0 18.2 0.00 0.00 0.00 67 1006.8
20260506161452 71 165 8.7 18.2 0.00 0.00 0.00 67 1006.9
20260506160949 71 162 9.6 18.2 0.00 0.00 0.00 65 1007.0
20260506160447 72 172 7.8 18.2 0.00 0.00 0.00 64 1007.0
20260506155946 73 177 6.1 14.8 0.00 0.00 0.00 65 1007.2
20260506155445 72 169 6.1 16.5 0.00 0.00 0.00 65 1007.2
20260506154944 72 170 7.8 16.5 0.00 0.00 0.00 64 1007.1
20260506154443 73 172 5.2 16.5 0.00 0.00 0.00 66 1007.1
20260506153941 72 185 7.0 16.5 0.00 0.00 0.00 66 1007.2
20260506153440 73 175 7.0 16.5 0.00 0.00 0.00 67 1007.1
20260506152939 73 166 7.8 14.8 0.00 0.00 0.00 67 1007.1
20260506152436 72 163 7.0 19.1 0.00 0.00 0.00 66 1007.2
20260506151934 72 166 8.7 19.1 0.00 0.00 0.00 65 1007.4
20260506150930 73 175 6.1 18.2 0.00 0.00 0.00 64 1007.5
20260506150427 73 156 9.6 18.2 0.00 0.00 0.00 63 1007.5
20260506145924 73 155 8.7 20.9 0.00 0.00 0.00 63 1007.7
20260506145423 73 163 11.3 20.9 0.00 0.00 0.00 61 1007.4
20260506144421 74 169 7.8 20.9 0.00 0.00 0.00 58 1007.5
20260506143920 74 172 8.7 20.9 0.00 0.00 0.00 59 1007.6
20260506143419 75 173 7.0 17.4 0.00 0.00 0.00 58 1007.4
20260506142416 74 145 9.6 16.5 0.00 0.00 0.00 58 1007.4
20260506141915 74 142 7.0 14.8 0.00 0.00 0.00 57 1007.5
20260506140912 73 174 7.0 17.4 0.00 0.00 0.00 58 1007.6
20260506140411 73 160 6.1 15.6 0.00 0.00 0.00 60 1007.9
20260506134902 75 145 8.7 17.4 0.00 0.00 0.00 55 1007.9
20260506134357 76 132 8.7 19.1 0.00 0.00 0.00 55 1008.0
20260506133855 74 165 12.2 19.1 0.00 0.00 0.00 57 1007.9
20260506133346 77 150 7.0 16.5 0.00 0.00 0.00 54 1008.1
20260506132821 77 155 6.1 18.2 0.00 0.00 0.00 55 1008.2
20260506132319 76 160 8.7 19.1 0.00 0.00 0.00 57 1008.2
20260506131317 75 175 7.0 19.1 0.00 0.00 0.00 56 1008.1
20260506130759 75 167 8.7 19.1 0.00 0.00 0.00 60 1008.4
20260506130258 74 158 7.0 14.8 0.00 0.00 0.00 61 1008.6
20260506125757 74 145 7.8 20.0 0.00 0.00 0.00 60 1008.5
20260506124752 76 160 6.1 18.2 0.00 0.00 0.00 62 1008.7
20260506124249 73 146 10.4 18.2 0.00 0.00 0.00 65 1008.7
20260506123748 75 155 7.8 20.9 0.00 0.00 0.00 63 1008.7
20260506122746 74 155 10.4 22.6 0.00 0.00 0.00 64 1008.8
20260506122245 74 139 9.6 20.0 0.00 0.00 0.00 64 1008.8
20260506121744 74 159 12.2 20.0 0.00 0.00 0.00 66 1008.8
20260506121243 75 141 6.1 19.1 0.00 0.00 0.00 67 1008.8
20260506120741 74 156 7.8 19.1 0.00 0.00 0.00 69 1008.8
20260506120240 75 154 7.0 18.2 0.00 0.00 0.00 69 1009.0
20260506115739 74 138 9.6 16.5 0.00 0.00 0.00 68 1009.0
20260506115238 75 161 7.8 17.4 0.00 0.00 0.00 71 1009.0
20260506114737 75 137 6.1 16.5 0.00 0.00 0.00 71 1009.0
20260506114237 73 123 7.8 16.5 0.00 0.00 0.00 73 1009.1
20260506113736 76 122 4.3 16.5 0.00 0.00 0.00 70 1009.2
20260506113235 74 168 7.8 16.5 0.00 0.00 0.00 72 1009.2
20260506112734 75 143 4.3 13.9 0.00 0.00 0.00 69 1009.3
20260506111729 72 136 8.7 15.6 0.00 0.00 0.00 77 1009.5
20260506111228 71 150 9.6 17.4 0.00 0.00 0.00 82 1009.6
20260506110727 71 143 7.0 18.2 0.00 0.00 0.00 81 1009.6
20260506110226 69 136 8.7 19.1 0.00 0.00 0.00 87 1009.7
20260506105725 70 148 8.7 19.1 0.00 0.00 0.00 84 1009.7
20260506105224 71 141 7.0 20.0 0.00 0.00 0.00 82 1009.6
20260506104722 72 147 7.8 20.0 0.00 0.00 0.00 80 1009.6
20260506104221 71 165 10.4 18.2 0.00 0.00 0.00 83 1009.7
20260506103719 71 131 9.6 18.2 0.00 0.00 0.00 83 1009.7
20260506103217 71 150 8.7 18.2 0.00 0.00 0.00 82 1009.8
20260506102716 71 149 9.6 18.2 0.00 0.00 0.00 82 1009.7
20260506102213 71 147 7.0 19.1 0.00 0.00 0.00 80 1009.8
20260506101712 70 154 9.6 18.2 0.00 0.00 0.00 83 1009.8
20260506101212 70 129 7.8 19.1 0.00 0.00 0.00 84 1009.9
20260506100711 71 142 8.7 19.1 0.00 0.00 0.00 83 1010.0
20260506095708 71 133 5.2 13.9 0.00 0.00 0.00 82 1010.1
20260506095206 70 129 7.8 13.9 0.00 0.00 0.00 85 1010.3
20260506094705 71 143 7.0 13.9 0.00 0.00 0.00 84 1010.3
20260506094203 70 115 7.0 14.8 0.00 0.00 0.00 87 1010.3
20260506093702 70 127 7.0 14.8 0.00 0.00 0.00 86 1010.4
20260506093200 71 148 5.2 13.9 0.00 0.00 0.00 84 1010.3
20260506092658 70 158 7.0 13.9 0.00 0.00 0.00 87 1010.4
20260506092154 70 167 7.0 13.0 0.00 0.00 0.00 87 1010.4
20260506091652 71 153 5.2 13.0 0.00 0.00 0.00 83 1010.3
20260506091149 70 157 7.0 13.0 0.00 0.00 0.00 86 1010.3
20260506090648 72 150 5.2 8.7 0.00 0.00 0.00 84 1010.2
20260506085646 70 165 6.1 9.6 0.00 0.00 0.00 88 1010.2
20260506085144 71 159 4.3 13.0 0.00 0.00 0.00 84 1010.2
20260506084643 70 153 5.2 13.0 0.00 0.00 0.00 88 1010.3
20260506083641 72 130 3.5 9.6 0.00 0.00 0.00 84 1010.3
20260506083140 69 168 5.2 9.6 0.00 0.00 0.00 91 1010.4
20260506082637 68 178 5.2 10.4 0.00 0.00 0.00 91 1010.4
20260506082136 69 168 6.1 11.3 0.00 0.00 0.00 90 1010.4
20260506081135 69 159 5.2 9.6 0.00 0.00 0.00 90 1010.4
20260506080633 69 174 3.5 9.6 0.00 0.00 0.00 86 1010.2
20260506080133 69 215 5.2 8.7 0.00 0.00 0.00 85 1010.2
20260506073125 68 247 2.6 7.0 0.00 0.00 0.00 88 1010.3
20260506072624 69 242 3.5 7.0 0.00 0.00 0.00 88 1010.3
20260506072122 69 209 2.6 7.8 0.00 0.00 0.00 86 1010.4
20260506071619 68 208 3.5 7.8 0.00 0.00 0.00 87 1010.4
20260506070616 70 217 0.9 6.1 0.00 0.00 0.00 87 1010.7
20260506070114 67 193 2.6 6.1 0.00 0.00 0.00 93 1010.6
20260506062059 64 198 5.2 8.7 0.00 0.00 0.00 100 1010.6
20260506061056 62 189 5.2 8.7 0.00 0.00 0.00 100 1010.6
20260506060554 62 219 4.3 7.0 0.00 0.00 0.00 100 1010.6
20260506051039 62 167 2.6 4.3 0.00 0.00 0.00 100 1010.4
20260506044531 58 168 2.6 7.0 0.00 0.00 0.00 100 1010.1
20260506044030 57 156 3.5 7.0 0.00 0.00 0.00 100 1010.1
20260506043529 58 155 3.5 7.8 0.00 0.00 0.00 100 1010.0
20260506043028 56 161 4.3 9.6 0.00 0.00 0.00 100 1009.9
20260506042527 58 158 5.2 9.6 0.00 0.00 0.00 100 1009.8
20260506042026 57 162 3.5 8.7 0.00 0.00 0.00 100 1009.8
20260506041522 57 157 5.2 10.4 0.00 0.00 0.00 100 1009.7
20260506041021 58 150 5.2 9.6 0.00 0.00 0.00 100 1009.7
20260506040520 58 142 5.2 9.6 0.00 0.00 0.00 100 1009.6
20260506040019 57 209 1.7 7.8 0.00 0.00 0.00 100 1009.7
20260506035518 56 163 3.5 8.7 0.00 0.00 0.00 100 1009.6
20260506035017 57 149 5.2 8.7 0.00 0.00 0.00 100 1009.6
20260506034516 57 159 4.3 7.0 0.00 0.00 0.00 100 1009.6
20260506034015 56 157 3.5 7.0 0.00 0.00 0.00 100 1009.6
20260506033013 56 153 4.3 7.8 0.00 0.00 0.00 100 1009.6
20260506032011 55 197 2.6 6.1 0.00 0.00 0.00 100 1009.5
20260506031510 56 166 2.6 7.0 0.00 0.00 0.00 100 1009.4
20260506031009 56 182 3.5 7.0 0.00 0.00 0.00 100 1009.4
20260506030508 58 154 4.3 7.8 0.00 0.00 0.00 100 1009.2
20260506030007 57 146 4.3 9.6 0.00 0.00 0.00 100 1009.1
20260506025506 57 152 5.2 9.6 0.00 0.00 0.00 100 1009.2
20260506025004 57 153 5.2 8.7 0.00 0.00 0.00 100 1009.2
20260506024502 58 146 5.2 8.7 0.00 0.00 0.00 100 1009.1
20260506024001 58 154 5.2 8.7 0.00 0.00 0.00 100 1009.1
20260506023500 58 160 5.2 8.7 0.00 0.00 0.00 100 1009.1
20260506022458 58 158 5.2 9.6 0.00 0.00 0.00 100 1009.1